This is the latest recevied weather packets stored in our database for station/object KA0EGE. If no packets are shown the sender has not sent any weather packets the latest 10 day(s).
| Time | Temp. | Humidity | Pressure | Rain* | Wind** | Luminosity | Snow |
|---|---|---|---|---|---|---|---|
| 1777587418 | 25.56° C | 72% | 1012.6 hPa | 0 mm | - | 152 W/m² | - |
| 1777587115 | 25.56° C | 71% | 1012.8 hPa | 0 mm | - | 156 W/m² | - |
| 1777586811 | 25.56° C | 71% | 1012.9 hPa | 0 mm | - | 181 W/m² | - |
| 1777586506 | 25.56° C | 71% | 1012.6 hPa | 0 mm | - | 253 W/m² | - |
| 1777586202 | 25.56° C | 71% | 1013 hPa | 0 mm | - | 238 W/m² | - |
| 1777585900 | 25.56° C | 70% | 1013.1 hPa | 0 mm | - | 260 W/m² | - |
| 1777585594 | 25.56° C | 71% | 1013.2 hPa | 0 mm | - | 191 W/m² | - |
| 1777585290 | 25.56° C | 71% | 1013.1 hPa | 0 mm | - | 207 W/m² | - |
| 1777584985 | 25.56° C | 71% | 1013.2 hPa | 0 mm | - | 235 W/m² | - |
| 1777584682 | 25.56° C | 72% | 1013.3 hPa | 0 mm | - | 233 W/m² | - |
| 1777584379 | 25.56° C | 72% | 1013.4 hPa | 0 mm | - | 234 W/m² | - |
| 1777584075 | 25° C | 74% | 1013.4 hPa | 0 mm | - | 167 W/m² | - |
| 1777583770 | 25.56° C | 71% | 1013.7 hPa | 0 mm | - | 140 W/m² | - |
| 1777583469 | 25.56° C | 71% | 1013.7 hPa | 0 mm | - | 118 W/m² | - |
| 1777583163 | 25.56° C | 71% | 1013.8 hPa | 0 mm | - | 111 W/m² | - |
| 1777582859 | 25.56° C | 70% | 1013.9 hPa | 0 mm | - | 135 W/m² | - |
| 1777582556 | 25.56° C | 71% | 1013.9 hPa | 0 mm | - | 140 W/m² | - |
| 1777582252 | 25.56° C | 71% | 1013.9 hPa | 0 mm | - | 65 W/m² | - |
| 1777581949 | 25.56° C | 70% | 1013.7 hPa | 0 mm | - | 116 W/m² | - |
| 1777581644 | 25.56° C | 71% | 1013.9 hPa | 0 mm | - | 192 W/m² | - |
| 1777581339 | 25.56° C | 70% | 1013.8 hPa | 0 mm | - | 188 W/m² | - |
| 1777581034 | 26.11° C | 69% | 1013.7 hPa | 0 mm | - | 219 W/m² | - |
| 1777580733 | 26.11° C | 70% | 1013.8 hPa | 0 mm | - | 249 W/m² | - |
| 1777580430 | 26.11° C | 69% | 1013.9 hPa | 0 mm | - | 265 W/m² | - |
| 1777580125 | 26.11° C | 68% | 1014 hPa | 0 mm | - | 274 W/m² | - |
* Rain latest hour (hover to see other rain measurements)
** Current wind speed in m/s (hover to see current wind gust speed)